Location: Croisilles
(50.1998°N, 2.8793°E)
Time: 12:39:48
(UTC+00:00)

Cosmos 2082 Rocket - Pass Details

Date: 21 January 2021
Orbit: 832 x 855 km, 71.0° (Epoch: 26 February)

Event Time Altitude Azimuth Distance (km) Brightness Sun altitude
Rises 19:17:20 0° 332° (NNW) 3,438 5.8 -27.3°
Reaches altitude 10° 19:19:53 10° 337° (NNW) 2,498 4.9 -27.7°
Enters shadow 19:23:37 37° 3° (N) 1,304 3.1 -28.3°
